Location: Pian di Sc�
(43.6333°N, 11.5500°E)
Time: 14:20:06
(UTC+00:00)

Meteor 1-24 Rocket - Pass Details

Date: 07 August 2020
Orbit: 789 x 928 km, 81.2° (Epoch: 25 September)

Event Time Altitude Azimuth Distance (km) Brightness Sun altitude
Rises 01:58:24 0° 345° (NNW) 3,395 7.3 -19.9°
Reaches altitude 10° 02:00:53 10° 342° (NNW) 2,436 6.5 -19.6°
Maximum altitude 02:06:14 56° 265° (W) 960 3.7 -19.0°
Enters shadow 02:08:28 33° 204° (SSW) 1,334 4.2 -18.7°
